FW7576 Weather Reports


time (UTC)temp
F
wind
direction
speed
knots
gust
knots
rain 1hr
in
rain 24hr
in
rain mn
in
humidity
%
barometer
mb
20260903143104 74 318 5.2 13.9 0.00 0.05 0.05 71 1014.7
20260903141542 72 300 4.3 19.1 0.00 0.05 0.05 76 1015.4
20260903140044 74 14 8.7 18.2 0.00 0.05 0.05 74 1014.9
20260903134548 73 297 8.7 16.5 0.00 0.05 0.05 81 1015.6
20260903133046 75 23 4.3 13.9 0.01 0.05 0.05 80 1015.1
20260903131602 76 295 5.2 8.7 0.01 0.05 0.05 86 1015.0
20260903130044 76 0 0.0 2.6 0.01 0.05 0.05 86 1013.5
20260903124546 76 231 0.0 1.7 0.01 0.05 0.05 83 1013.1
20260903123048 74 0 0.0 0.0 0.00 0.04 0.04 81 1013.3
20260903121543 74 0 0.0 0.0 0.00 0.04 0.04 81 1013.4
20260903120042 73 0 0.0 0.0 0.00 0.04 0.04 81 1013.3
20260903114548 73 0 0.0 0.0 0.00 0.04 0.04 82 1013.2
20260903113045 73 0 0.0 0.0 0.00 0.04 0.04 82 1013.4
20260903111541 72 0 0.0 0.0 0.00 0.04 0.04 82 1013.5
20260903110046 72 0 0.0 0.0 0.00 0.04 0.04 82 1013.5
20260903104543 72 0 0.0 0.0 0.00 0.04 0.04 83 1013.3
20260903103044 72 0 0.0 0.0 0.00 0.04 0.04 83 1013.4
20260903101543 72 0 0.0 0.0 0.00 0.04 0.04 84 1013.5
20260903100048 72 0 0.0 0.0 0.00 0.04 0.04 84 1013.5
20260903094546 72 0 0.0 0.0 0.00 0.04 0.04 84 1013.6
20260903093045 72 0 0.0 0.0 0.00 0.04 0.04 84 1013.6
20260903091540 73 0 0.0 0.0 0.00 0.04 0.04 84 1013.6
20260903090046 73 0 0.0 0.0 0.00 0.04 0.04 85 1013.4
20260903084543 73 0 0.0 0.0 0.00 0.04 0.04 85 1013.5
20260903083051 73 0 0.0 0.0 0.00 0.04 0.04 85 1013.5
20260903081547 73 0 0.0 0.0 0.00 0.04 0.04 85 1013.4
20260903080051 73 0 0.0 0.0 0.04 0.04 0.04 86 1013.6
20260903074543 74 0 0.0 0.0 0.04 0.04 0.04 86 1013.5
20260903073043 74 0 0.0 0.9 0.04 0.04 0.04 87 1013.4
20260903071543 75 144 1.7 5.2 0.04 0.04 0.04 87 1013.4
20260903070048 75 0 0.0 0.0 0.00 0.00 0.00 87 1013.5
20260903064542 76 0 0.0 0.0 0.00 0.00 0.00 86 1013.6
20260903063042 76 0 0.0 0.9 0.00 0.00 0.00 86 1013.6
20260903061551 76 0 0.0 0.9 0.00 0.00 0.00 86 1013.6
20260903060045 77 0 0.0 0.0 0.00 0.00 0.00 87 1013.6
20260903054544 77 0 0.0 0.0 0.00 0.00 0.00 87 1013.7
20260903053049 77 0 0.0 0.0 0.00 0.00 0.00 86 1013.7
20260903051547 78 0 0.0 0.9 0.00 0.00 0.00 86 1013.9
20260903050050 77 0 0.0 0.9 0.00 0.00 0.00 86 1013.7
20260903044542 77 0 0.0 0.0 0.00 0.00 0.00 86 1013.5
20260903043048 77 0 0.0 0.0 0.00 0.00 0.00 87 1013.4
20260903041546 77 0 0.0 0.0 0.00 0.00 0.00 86 1013.4
20260903040045 78 0 0.0 0.0 0.00 0.00 0.00 86 1013.3
20260903034544 78 0 0.0 0.0 0.00 0.00 0.00 86 1013.4
20260903033047 78 0 0.0 0.0 0.00 0.00 0.00 86 1013.3
20260903031547 78 0 0.0 0.0 0.00 0.00 0.00 86 1013.3
20260903030043 79 0 0.0 0.0 0.00 0.00 0.00 85 1013.3
20260903024546 79 0 0.0 0.0 0.00 0.00 0.00 85 1013.3
20260903023056 79 0 0.0 0.0 0.00 0.00 0.00 84 1013.3
20260903021544 80 0 0.0 0.0 0.00 0.00 0.00 83 1013.2
20260903020053 80 0 0.0 0.0 0.00 0.00 0.00 83 1013.2
20260903014543 81 0 0.0 0.0 0.00 0.00 0.00 82 1013.1
20260903013052 81 0 0.0 0.0 0.00 0.00 0.00 80 1013.0
20260903011540 82 0 0.0 0.0 0.00 0.00 0.00 79 1012.8
20260903010043 83 0 0.0 0.0 0.00 0.00 0.00 77 1012.7
20260903004549 84 0 0.0 0.0 0.00 0.00 0.00 75 1012.5
20260903003048 85 0 0.0 1.7 0.00 0.00 0.00 73 1012.4
20260903001545 86 0 0.0 1.7 0.00 0.00 0.00 71 1012.5
20260903000042 87 252 0.0 2.6 0.00 0.00 0.00 70 1012.7
20260902234600 87 242 0.9 4.3 0.00 0.00 0.00 69 1012.7
20260902233043 87 244 0.9 3.5 0.00 0.00 0.00 69 1012.6
20260902231623 87 249 2.6 4.3 0.00 0.00 0.00 69 1012.7
20260902230050 87 237 1.7 4.3 0.00 0.00 0.00 69 1012.6
20260902224548 87 290 1.7 4.3 0.00 0.01 0.00 67 1012.6
20260902223044 88 250 1.7 4.3 0.00 0.01 0.00 66 1012.8
20260902221544 88 240 0.9 5.2 0.00 0.01 0.00 66 1013.0
20260902220045 88 236 1.7 6.1 0.00 0.01 0.00 64 1012.7
20260902214543 88 328 1.7 5.2 0.00 0.05 0.00 64 1012.7
20260902213049 89 260 3.5 10.4 0.00 0.05 0.00 61 1013.0
20260902211544 90 243 4.3 10.4 0.00 0.05 0.00 58 1012.9
20260902210045 89 252 3.5 10.4 0.00 0.05 0.00 59 1012.9
20260902204551 90 259 5.2 10.4 0.00 0.07 0.00 57 1013.0
20260902203048 89 193 3.5 9.6 0.00 0.07 0.00 63 1012.6
20260902201553 89 333 2.6 7.0 0.00 0.07 0.00 64 1012.8
20260902200045 89 255 2.6 7.0 0.00 0.07 0.00 65 1013.0
20260902194541 89 250 3.5 7.0 0.00 0.07 0.00 64 1013.1
20260902193046 89 250 1.7 8.7 0.00 0.07 0.00 64 1013.2
20260902191543 89 252 1.7 6.1 0.00 0.07 0.00 68 1013.3
20260902190040 88 238 1.7 6.1 0.00 0.07 0.00 68 1013.4
20260902184540 89 159 0.0 1.7 0.00 0.07 0.00 67 1013.5
20260902183048 87 248 0.9 7.0 0.00 0.07 0.00 67 1013.6
20260902181553 87 259 1.7 4.3 0.00 0.07 0.00 67 1013.7
20260902180040 86 276 0.9 5.2 0.00 0.07 0.00 68 1013.8
20260902174539 86 227 2.6 7.0 0.00 0.07 0.00 66 1014.0
20260902173047 86 183 0.9 4.3 0.00 0.07 0.00 65 1014.0
20260902171559 86 285 1.7 4.3 0.00 0.07 0.00 65 1014.0
20260902170050 86 0 0.9 3.5 0.00 0.07 0.00 64 1014.1
20260902164545 85 256 0.0 2.6 0.00 0.07 0.00 66 1014.4
20260902163042 83 102 0.0 4.3 0.00 0.07 0.00 69 1014.6
20260902161543 82 143 1.7 7.0 0.00 0.07 0.00 70 1013.9
20260902154545 81 155 2.6 5.2 0.00 0.07 0.00 70 1014.3
20260902153041 80 60 2.6 6.1 0.00 0.07 0.00 72 1014.5
20260902151555 79 0 0.9 6.1 0.00 0.07 0.00 73 1014.6
20260902150048 79 77 0.9 3.5 0.00 0.07 0.00 74 1014.6
20260902144543 77 56 2.6 4.3 0.00 0.07 0.00 76 1014.6